contact:dominique.lefevre@mio.osupytheas.fr, maurice.libes@osupytheas.fr, didier.mallarino@osupytheas.fr
Project:EMSO http://www.emso-fr.org/EMSO-France
Depth: 2436.0 m
Title:EMSO Ligure Ouest : Data MII capteur CSTAR
DateTime,Latitude,Longitude,Instrument_Serial,Reference_Counts,Signal_Counts,Corrected_Signal_raw_counts,Calculated_Beam_c_inverse_meters,Internal_thermistor_counts
DateTime,Latitude,Longitude,Instrument_Serial,Reference_Counts,Signal_Counts,Corrected_Signal_raw_counts,Calculated_Beam_c_inverse_meters,Internal_thermistor_counts
2023-01-12T00:00:02,42.805,6.029,CST-1368DR,4421,4878,11728,01.145,551
2023-01-12T00:03:03,42.805,6.029,CST-1368DR,4421,4874,11719,01.148,551
2023-01-12T00:06:05,42.805,6.029,CST-1368DR,4421,4881,11734,01.143,551
2023-01-12T00:09:07,42.805,6.029,CST-1368DR,4421,4875,11721,01.148,551
2023-01-12T00:12:08,42.805,6.029,CST-1368DR,4421,4872,11714,01.150,551
2023-01-12T00:15:10,42.805,6.029,CST-1368DR,4421,4871,11710,01.151,551
2023-01-12T00:18:11,42.805,6.029,CST-1368DR,4421,4875,11720,01.148,551
2023-01-12T00:21:13,42.805,6.029,CST-1368DR,4421,4872,11712,01.151,551
2023-01-12T00:24:14,42.805,6.029,CST-1368DR,4421,4871,11711,01.151,551
2023-01-12T00:27:16,42.805,6.029,CST-1368DR,4421,4872,11713,01.150,551
2023-01-12T00:30:18,42.805,6.029,CST-1368DR,4421,4870,11709,01.152,551
2023-01-12T00:33:19,42.805,6.029,CST-1368DR,4421,4872,11712,01.151,551
2023-01-12T00:36:21,42.805,6.029,CST-1368DR,4421,4871,11712,01.151,551
2023-01-12T00:39:22,42.805,6.029,CST-1368DR,4421,4874,11717,01.149,551
2023-01-12T00:42:24,42.805,6.029,CST-1368DR,4421,4872,11712,01.151,551
2023-01-12T00:45:26,42.805,6.029,CST-1368DR,4421,4871,11712,01.151,551
2023-01-12T00:48:27,42.805,6.029,CST-1368DR,4421,4871,11711,01.151,551
2023-01-12T00:51:29,42.805,6.029,CST-1368DR,4421,4870,11709,01.152,551
2023-01-12T00:54:30,42.805,6.029,CST-1368DR,4421,4870,11709,01.152,551
2023-01-12T00:57:32,42.805,6.029,CST-1368DR,4421,4874,11718,01.149,551
2023-01-12T01:00:33,42.805,6.029,CST-1368DR,4421,4873,11716,01.149,551
2023-01-12T01:03:35,42.805,6.029,CST-1368DR,4421,4870,11709,01.152,551
2023-01-12T01:06:37,42.805,6.029,CST-1368DR,4421,4870,11709,01.152,551
2023-01-12T01:09:38,42.805,6.029,CST-1368DR,4421,4872,11713,01.150,551
2023-01-12T01:12:40,42.805,6.029,CST-1368DR,4421,4874,11719,01.148,551
2023-01-12T01:15:41,42.805,6.029,CST-1368DR,4421,4871,11710,01.151,551
2023-01-12T01:18:43,42.805,6.029,CST-1368DR,4421,4874,11719,01.148,551
2023-01-12T01:21:45,42.805,6.029,CST-1368DR,4421,4869,11707,01.152,551
2023-01-12T01:24:46,42.805,6.029,CST-1368DR,4421,4871,11710,01.151,551
2023-01-12T01:27:48,42.805,6.029,CST-1368DR,4421,4872,11712,01.151,551
2023-01-12T01:30:49,42.805,6.029,CST-1368DR,4421,4875,11721,01.148,551
2023-01-12T01:33:51,42.805,6.029,CST-1368DR,4421,4871,11710,01.151,551
2023-01-12T01:36:53,42.805,6.029,CST-1368DR,4421,4873,11715,01.150,551
2023-01-12T01:39:54,42.805,6.029,CST-1368DR,4421,4871,11712,01.151,551
2023-01-12T01:42:56,42.805,6.029,CST-1368DR,4421,4871,11711,01.151,551
2023-01-12T01:45:57,42.805,6.029,CST-1368DR,4421,4871,11710,01.151,551
2023-01-12T01:48:59,42.805,6.029,CST-1368DR,4421,4871,11711,01.151,551
2023-01-12T01:52:00,42.805,6.029,CST-1368DR,4421,4872,11712,01.151,551
2023-01-12T01:55:02,42.805,6.029,CST-1368DR,4421,4869,11706,01.153,551
2023-01-12T01:58:04,42.805,6.029,CST-1368DR,4421,4869,11707,01.152,551
2023-01-12T02:01:05,42.805,6.029,CST-1368DR,4421,4871,11710,01.151,551
2023-01-12T02:04:07,42.805,6.029,CST-1368DR,4421,4869,11706,01.153,551
2023-01-12T02:07:08,42.805,6.029,CST-1368DR,4421,4871,11712,01.151,551
2023-01-12T02:10:10,42.805,6.029,CST-1368DR,4421,4868,11704,01.153,551
2023-01-12T02:13:12,42.805,6.029,CST-1368DR,4421,4868,11704,01.153,551
2023-01-12T02:16:13,42.805,6.029,CST-1368DR,4421,4868,11703,01.154,551
2023-01-12T02:19:15,42.805,6.029,CST-1368DR,4421,4870,11709,01.152,551
2023-01-12T02:22:16,42.805,6.029,CST-1368DR,4421,4869,11707,01.152,551
2023-01-12T02:25:18,42.805,6.029,CST-1368DR,4421,4869,11706,01.153,551
2023-01-12T02:28:19,42.805,6.029,CST-1368DR,4421,4869,11706,01.153,551
2023-01-12T02:31:21,42.805,6.029,CST-1368DR,4421,4869,11707,01.152,551
2023-01-12T02:34:23,42.805,6.029,CST-1368DR,4421,4869,11706,01.153,551
2023-01-12T02:37:24,42.805,6.029,CST-1368DR,4421,4872,11712,01.151,551
2023-01-12T02:40:26,42.805,6.029,CST-1368DR,4421,4872,11714,01.150,551
2023-01-12T02:43:27,42.805,6.029,CST-1368DR,4421,4869,11705,01.153,551
2023-01-12T02:46:29,42.805,6.029,CST-1368DR,4421,4868,11704,01.153,551
2023-01-12T02:49:31,42.805,6.029,CST-1368DR,4421,4868,11704,01.153,551
2023-01-12T02:52:32,42.805,6.029,CST-1368DR,4421,4869,11705,01.153,551
2023-01-12T02:55:34,42.805,6.029,CST-1368DR,4421,4869,11707,01.152,551
2023-01-12T02:58:35,42.805,6.029,CST-1368DR,4421,4875,11721,01.148,551
2023-01-12T03:01:37,42.805,6.029,CST-1368DR,4421,4874,11717,01.149,551
2023-01-12T03:04:38,42.805,6.029,CST-1368DR,4421,4872,11713,01.150,551
2023-01-12T03:07:40,42.805,6.029,CST-1368DR,4421,4871,11710,01.151,551
2023-01-12T03:10:42,42.805,6.029,CST-1368DR,4421,4870,11708,01.152,551
2023-01-12T03:13:43,42.805,6.029,CST-1368DR,4421,4871,11710,01.151,551
2023-01-12T03:16:45,42.805,6.029,CST-1368DR,4421,4869,11706,01.153,551
2023-01-12T03:19:46,42.805,6.029,CST-1368DR,4421,4869,11705,01.153,551
2023-01-12T03:22:48,42.805,6.029,CST-1368DR,4421,4877,11724,01.147,551
2023-01-12T03:25:50,42.805,6.029,CST-1368DR,4421,4871,11712,01.151,551
2023-01-12T03:28:51,42.805,6.029,CST-1368DR,4421,4872,11712,01.151,551
2023-01-12T03:31:53,42.805,6.029,CST-1368DR,4421,4871,11710,01.151,551
2023-01-12T03:34:54,42.805,6.029,CST-1368DR,4421,4872,11713,01.150,551
2023-01-12T03:37:56,42.805,6.029,CST-1368DR,4421,4874,11719,01.148,551
2023-01-12T03:40:58,42.805,6.029,CST-1368DR,4421,4870,11708,01.152,551
2023-01-12T03:43:59,42.805,6.029,CST-1368DR,4421,4873,11716,01.149,551
2023-01-12T03:47:01,42.805,6.029,CST-1368DR,4421,4870,11709,01.152,551
2023-01-12T03:50:02,42.805,6.029,CST-1368DR,4421,4870,11709,01.152,551
2023-01-12T03:53:04,42.805,6.029,CST-1368DR,4421,4869,11707,01.152,551
2023-01-12T03:56:05,42.805,6.029,CST-1368DR,4421,4870,11708,01.152,551
2023-01-12T03:59:07,42.805,6.029,CST-1368DR,4421,4868,11704,01.153,551
2023-01-12T04:02:09,42.805,6.029,CST-1368DR,4421,4869,11705,01.153,551
2023-01-12T04:05:10,42.805,6.029,CST-1368DR,4421,4871,11712,01.151,551
2023-01-12T04:08:12,42.805,6.029,CST-1368DR,4421,4871,11711,01.151,551
2023-01-12T04:11:13,42.805,6.029,CST-1368DR,4421,4871,11711,01.151,551
2023-01-12T04:14:15,42.805,6.029,CST-1368DR,4421,4869,11706,01.153,551
2023-01-12T04:17:17,42.805,6.029,CST-1368DR,4421,4869,11706,01.153,551
2023-01-12T04:20:18,42.805,6.029,CST-1368DR,4421,4869,11707,01.152,551
2023-01-12T04:23:20,42.805,6.029,CST-1368DR,4421,4868,11704,01.153,551
2023-01-12T04:26:21,42.805,6.029,CST-1368DR,4421,4873,11715,01.150,551
2023-01-12T04:29:23,42.805,6.029,CST-1368DR,4421,4871,11712,01.151,551
2023-01-12T04:32:25,42.805,6.029,CST-1368DR,4421,4874,11718,01.149,551
2023-01-12T04:35:26,42.805,6.029,CST-1368DR,4421,4875,11719,01.148,551
2023-01-12T04:38:28,42.805,6.029,CST-1368DR,4421,4872,11713,01.150,551
2023-01-12T04:41:29,42.805,6.029,CST-1368DR,4421,4873,11716,01.149,551
2023-01-12T04:44:31,42.805,6.029,CST-1368DR,4421,4873,11715,01.150,551
2023-01-12T04:47:32,42.805,6.029,CST-1368DR,4421,4872,11713,01.150,551
2023-01-12T04:50:34,42.805,6.029,CST-1368DR,4421,4872,11712,01.151,551
2023-01-12T04:53:36,42.805,6.029,CST-1368DR,4421,4872,11713,01.150,551
2023-01-12T04:56:37,42.805,6.029,CST-1368DR,4421,4871,11710,01.151,551
2023-01-12T04:59:39,42.805,6.029,CST-1368DR,4421,4871,11710,01.151,551
2023-01-12T05:02:40,42.805,6.029,CST-1368DR,4421,4870,11709,01.152,551
2023-01-12T05:05:42,42.805,6.029,CST-1368DR,4421,4869,11706,01.153,551
2023-01-12T05:08:44,42.805,6.029,CST-1368DR,4421,4876,11722,01.147,551
2023-01-12T05:11:45,42.805,6.029,CST-1368DR,4421,4872,11713,01.150,551
2023-01-12T05:14:47,42.805,6.029,CST-1368DR,4421,4873,11716,01.149,551
2023-01-12T05:17:48,42.805,6.029,CST-1368DR,4421,4870,11709,01.152,551
2023-01-12T05:20:50,42.805,6.029,CST-1368DR,4421,4871,11710,01.151,551
2023-01-12T05:23:51,42.805,6.029,CST-1368DR,4421,4874,11717,01.149,551
2023-01-12T05:26:53,42.805,6.029,CST-1368DR,4421,4871,11712,01.151,551
2023-01-12T05:29:55,42.805,6.029,CST-1368DR,4421,4870,11709,01.152,551
2023-01-12T05:32:56,42.805,6.029,CST-1368DR,4421,4873,11716,01.149,551
2023-01-12T05:35:58,42.805,6.029,CST-1368DR,4421,4870,11708,01.152,551
2023-01-12T05:38:59,42.805,6.029,CST-1368DR,4421,4859,11682,01.161,551
2023-01-12T05:42:01,42.805,6.029,CST-1368DR,4421,4867,11701,01.154,551
2023-01-12T05:45:03,42.805,6.029,CST-1368DR,4421,4869,11705,01.153,551
2023-01-12T05:48:04,42.805,6.029,CST-1368DR,4421,4868,11703,01.154,551
2023-01-12T05:51:06,42.805,6.029,CST-1368DR,4421,4873,11716,01.149,551
2023-01-12T05:54:07,42.805,6.029,CST-1368DR,4421,4872,11713,01.150,551
2023-01-12T05:57:09,42.805,6.029,CST-1368DR,4421,4869,11705,01.153,551
2023-01-12T06:00:11,42.805,6.029,CST-1368DR,4421,4871,11710,01.151,551
2023-01-12T06:03:12,42.805,6.029,CST-1368DR,4421,4869,11707,01.152,551
2023-01-12T06:06:14,42.805,6.029,CST-1368DR,4421,4871,11711,01.151,551
2023-01-12T06:09:15,42.805,6.029,CST-1368DR,4421,4870,11708,01.152,551
2023-01-12T06:12:17,42.805,6.029,CST-1368DR,4421,4871,11710,01.151,551
2023-01-12T06:15:18,42.805,6.029,CST-1368DR,4421,4873,11715,01.150,551
2023-01-12T06:18:20,42.805,6.029,CST-1368DR,4421,4871,11712,01.151,551
2023-01-12T06:21:22,42.805,6.029,CST-1368DR,4421,4875,11719,01.148,551
2023-01-12T06:24:23,42.805,6.029,CST-1368DR,4421,4871,11711,01.151,551
2023-01-12T06:27:25,42.805,6.029,CST-1368DR,4421,4874,11718,01.149,551
2023-01-12T06:30:26,42.805,6.029,CST-1368DR,4421,4872,11714,01.150,551
2023-01-12T06:33:28,42.805,6.029,CST-1368DR,4421,4875,11721,01.148,551
2023-01-12T06:36:30,42.805,6.029,CST-1368DR,4421,4872,11713,01.150,551
2023-01-12T06:39:31,42.805,6.029,CST-1368DR,4421,4873,11716,01.149,551
2023-01-12T06:42:33,42.805,6.029,CST-1368DR,4421,4875,11720,01.148,551
2023-01-12T06:45:34,42.805,6.029,CST-1368DR,4421,4871,11711,01.151,551
2023-01-12T06:48:36,42.805,6.029,CST-1368DR,4421,4876,11723,01.147,551
2023-01-12T06:51:37,42.805,6.029,CST-1368DR,4421,4876,11723,01.147,551
2023-01-12T06:54:39,42.805,6.029,CST-1368DR,4421,4876,11722,01.147,551
2023-01-12T06:57:41,42.805,6.029,CST-1368DR,4421,4874,11719,01.148,551
2023-01-12T07:00:42,42.805,6.029,CST-1368DR,4421,4875,11721,01.148,551
2023-01-12T07:03:44,42.805,6.029,CST-1368DR,4421,4873,11716,01.149,551
2023-01-12T07:06:45,42.805,6.029,CST-1368DR,4421,4874,11718,01.149,551
2023-01-12T07:09:47,42.805,6.029,CST-1368DR,4421,4878,11727,01.146,551
2023-01-12T07:12:49,42.805,6.029,CST-1368DR,4421,4876,11722,01.147,551
2023-01-12T07:15:50,42.805,6.029,CST-1368DR,4421,4873,11716,01.149,551
2023-01-12T07:18:52,42.805,6.029,CST-1368DR,4421,4872,11713,01.150,551
2023-01-12T07:21:53,42.805,6.029,CST-1368DR,4421,4876,11722,01.147,550
2023-01-12T07:24:55,42.805,6.029,CST-1368DR,4421,4872,11714,01.150,551
2023-01-12T07:27:57,42.805,6.029,CST-1368DR,4421,4881,11734,01.143,551
2023-01-12T07:30:58,42.805,6.029,CST-1368DR,4421,4877,11725,01.146,551
2023-01-12T07:34:00,42.805,6.029,CST-1368DR,4421,4875,11721,01.148,551
2023-01-12T07:37:01,42.805,6.029,CST-1368DR,4421,4871,11710,01.151,551
2023-01-12T07:40:03,42.805,6.029,CST-1368DR,4421,4876,11722,01.147,551
2023-01-12T07:43:04,42.805,6.029,CST-1368DR,4421,4874,11718,01.149,551
2023-01-12T07:46:06,42.805,6.029,CST-1368DR,4421,4876,11722,01.147,551
2023-01-12T07:49:08,42.805,6.029,CST-1368DR,4421,4885,11744,01.140,551
2023-01-12T07:52:09,42.805,6.029,CST-1368DR,4421,4879,11730,01.145,551
2023-01-12T07:55:11,42.805,6.029,CST-1368DR,4421,4878,11727,01.146,551
2023-01-12T07:58:12,42.805,6.029,CST-1368DR,4421,4883,11739,01.142,551
2023-01-12T08:01:14,42.805,6.029,CST-1368DR,4421,4877,11724,01.147,551
2023-01-12T08:04:16,42.805,6.029,CST-1368DR,4420,4858,11682,01.161,551
2023-01-12T08:07:17,42.805,6.029,CST-1368DR,4421,4871,11711,01.151,551
2023-01-12T08:10:19,42.805,6.029,CST-1368DR,4421,4869,11706,01.153,551
2023-01-12T08:13:20,42.805,6.029,CST-1368DR,4421,4869,11705,01.153,551
2023-01-12T08:16:22,42.805,6.029,CST-1368DR,4421,4885,11744,01.140,551
2023-01-12T08:19:23,42.805,6.029,CST-1368DR,4421,4882,11736,01.143,551
2023-01-12T08:22:25,42.805,6.029,CST-1368DR,4421,4884,11742,01.140,551
2023-01-12T08:25:27,42.805,6.029,CST-1368DR,4421,4881,11736,01.143,551
2023-01-12T08:28:28,42.805,6.029,CST-1368DR,4421,4881,11734,01.143,551
2023-01-12T08:31:30,42.805,6.029,CST-1368DR,4421,4870,11709,01.152,551
2023-01-12T08:34:31,42.805,6.029,CST-1368DR,4421,4882,11736,01.143,551
2023-01-12T08:37:33,42.805,6.029,CST-1368DR,4421,4881,11736,01.143,551
2023-01-12T08:40:35,42.805,6.029,CST-1368DR,4421,4879,11730,01.145,551
2023-01-12T08:43:36,42.805,6.029,CST-1368DR,4421,4881,11735,01.143,551
2023-01-12T08:46:38,42.805,6.029,CST-1368DR,4421,4869,11707,01.152,551
2023-01-12T08:49:39,42.805,6.029,CST-1368DR,4421,4879,11729,01.145,551
2023-01-12T08:52:41,42.805,6.029,CST-1368DR,4421,4877,11726,01.146,551
2023-01-12T08:55:43,42.805,6.029,CST-1368DR,4421,4872,11713,01.150,551
2023-01-12T08:58:44,42.805,6.029,CST-1368DR,4421,4876,11723,01.147,551
2023-01-12T09:01:46,42.805,6.029,CST-1368DR,4421,4875,11720,01.148,551
2023-01-12T09:04:47,42.805,6.029,CST-1368DR,4421,4873,11716,01.149,551
2023-01-12T09:07:49,42.805,6.029,CST-1368DR,4421,4874,11719,01.148,551
2023-01-12T09:10:50,42.805,6.029,CST-1368DR,4421,4870,11709,01.152,551
2023-01-12T09:13:52,42.805,6.029,CST-1368DR,4421,4865,11697,01.156,551
2023-01-12T09:16:54,42.805,6.029,CST-1368DR,4421,4868,11703,01.154,551
2023-01-12T09:19:55,42.805,6.029,CST-1368DR,4421,4873,11716,01.149,551
2023-01-12T09:22:57,42.805,6.029,CST-1368DR,4421,4866,11700,01.155,551
2023-01-12T09:25:58,42.805,6.029,CST-1368DR,4420,4866,11701,01.154,551
2023-01-12T09:29:00,42.805,6.029,CST-1368DR,4421,4875,11721,01.148,551
2023-01-12T09:32:02,42.805,6.029,CST-1368DR,4421,4874,11719,01.148,551
2023-01-12T09:35:03,42.805,6.029,CST-1368DR,4421,4887,11748,01.138,551
2023-01-12T09:38:05,42.805,6.029,CST-1368DR,4421,4878,11727,01.146,551
2023-01-12T09:41:06,42.805,6.029,CST-1368DR,4421,4886,11746,01.139,551
2023-01-12T09:44:08,42.805,6.029,CST-1368DR,4421,4882,11736,01.143,551
2023-01-12T09:47:09,42.805,6.029,CST-1368DR,4421,4885,11745,01.139,551
2023-01-12T09:50:11,42.805,6.029,CST-1368DR,4421,4889,11754,01.136,551
2023-01-12T09:53:13,42.805,6.029,CST-1368DR,4421,4883,11740,01.141,551
2023-01-12T09:56:14,42.805,6.029,CST-1368DR,4421,4882,11736,01.143,551
2023-01-12T09:59:16,42.805,6.029,CST-1368DR,4421,4889,11754,01.136,551
2023-01-12T10:02:17,42.805,6.029,CST-1368DR,4421,4887,11749,01.138,551
2023-01-12T10:05:19,42.805,6.029,CST-1368DR,4421,4884,11743,01.140,551
2023-01-12T10:08:21,42.805,6.029,CST-1368DR,4421,4887,11748,01.138,551
2023-01-12T10:11:22,42.805,6.029,CST-1368DR,4421,4885,11743,01.140,551
2023-01-12T10:14:24,42.805,6.029,CST-1368DR,4421,4883,11739,01.142,551
2023-01-12T10:17:25,42.805,6.029,CST-1368DR,4421,4889,11754,01.136,551
2023-01-12T10:20:27,42.805,6.029,CST-1368DR,4421,4888,11751,01.137,551
2023-01-12T10:23:28,42.805,6.029,CST-1368DR,4421,4883,11739,01.142,551
2023-01-12T10:26:30,42.805,6.029,CST-1368DR,4421,4888,11752,01.137,551
2023-01-12T10:29:32,42.805,6.029,CST-1368DR,4421,4888,11751,01.137,551
2023-01-12T10:32:33,42.805,6.029,CST-1368DR,4421,4890,11757,01.135,551
2023-01-12T10:35:35,42.805,6.029,CST-1368DR,4421,4882,11738,01.142,551
2023-01-12T10:38:36,42.805,6.029,CST-1368DR,4421,4887,11749,01.138,551
2023-01-12T10:41:38,42.805,6.029,CST-1368DR,4421,4888,11751,01.137,551
2023-01-12T10:44:40,42.805,6.029,CST-1368DR,4421,4884,11741,01.141,551
2023-01-12T10:47:41,42.805,6.029,CST-1368DR,4421,4887,11748,01.138,551
2023-01-12T10:50:43,42.805,6.029,CST-1368DR,4421,4886,11747,01.139,551
2023-01-12T10:53:44,42.805,6.029,CST-1368DR,4421,4886,11747,01.139,551
2023-01-12T10:56:46,42.805,6.029,CST-1368DR,4421,4883,11739,01.142,551
2023-01-12T10:59:48,42.805,6.029,CST-1368DR,4421,4886,11746,01.139,551
2023-01-12T11:02:49,42.805,6.029,CST-1368DR,4421,4886,11746,01.139,551
2023-01-12T11:05:51,42.805,6.029,CST-1368DR,4421,4887,11749,01.138,551
2023-01-12T11:08:52,42.805,6.029,CST-1368DR,4421,4884,11741,01.141,551
2023-01-12T11:11:54,42.805,6.029,CST-1368DR,4421,4883,11740,01.141,551
2023-01-12T11:14:55,42.805,6.029,CST-1368DR,4421,4885,11745,01.139,551
2023-01-12T11:17:57,42.805,6.029,CST-1368DR,4421,4879,11730,01.145,551
2023-01-12T11:20:59,42.805,6.029,CST-1368DR,4421,4884,11742,01.140,551
2023-01-12T11:24:00,42.805,6.029,CST-1368DR,4421,4885,11745,01.139,551
2023-01-12T11:27:02,42.805,6.029,CST-1368DR,4421,4882,11737,01.142,551
2023-01-12T11:30:03,42.805,6.029,CST-1368DR,4421,4885,11744,01.140,551
2023-01-12T11:33:05,42.805,6.029,CST-1368DR,4421,4886,11746,01.139,551
2023-01-12T11:36:07,42.805,6.029,CST-1368DR,4421,4885,11745,01.139,551
2023-01-12T11:39:08,42.805,6.029,CST-1368DR,4421,4886,11746,01.139,551
2023-01-12T11:42:10,42.805,6.029,CST-1368DR,4421,4885,11745,01.139,551
2023-01-12T11:45:11,42.805,6.029,CST-1368DR,4421,4887,11748,01.138,551
2023-01-12T11:48:13,42.805,6.029,CST-1368DR,4420,4887,11753,01.137,551
2023-01-12T11:51:14,42.805,6.029,CST-1368DR,4421,4890,11755,01.136,551
2023-01-12T11:54:16,42.805,6.029,CST-1368DR,4421,4885,11744,01.140,551
2023-01-12T11:57:18,42.805,6.029,CST-1368DR,4421,4888,11751,01.137,551
2023-01-12T12:00:19,42.805,6.029,CST-1368DR,4421,4885,11745,01.139,551
2023-01-12T12:03:21,42.805,6.029,CST-1368DR,4421,4885,11743,01.140,551
2023-01-12T12:06:22,42.805,6.029,CST-1368DR,4421,4885,11745,01.139,551
2023-01-12T12:09:24,42.805,6.029,CST-1368DR,4421,4886,11747,01.139,551
2023-01-12T12:12:26,42.805,6.029,CST-1368DR,4421,4887,11749,01.138,551
2023-01-12T12:15:27,42.805,6.029,CST-1368DR,4421,4889,11754,01.136,551
2023-01-12T12:18:29,42.805,6.029,CST-1368DR,4421,4887,11750,01.138,551
2023-01-12T12:21:30,42.805,6.029,CST-1368DR,4421,4887,11749,01.138,551
2023-01-12T12:24:32,42.805,6.029,CST-1368DR,4420,4885,11746,01.139,551
2023-01-12T12:27:34,42.805,6.029,CST-1368DR,4420,4882,11739,01.142,551
2023-01-12T12:30:35,42.805,6.029,CST-1368DR,4420,4879,11733,01.144,551
2023-01-12T12:33:37,42.805,6.029,CST-1368DR,4420,4876,11725,01.146,551
2023-01-12T12:36:38,42.805,6.029,CST-1368DR,4420,4879,11733,01.144,551
2023-01-12T12:39:40,42.805,6.029,CST-1368DR,4420,4878,11731,01.144,551
2023-01-12T12:42:41,42.805,6.029,CST-1368DR,4420,4881,11736,01.143,551
2023-01-12T12:45:43,42.805,6.029,CST-1368DR,4420,4880,11736,01.143,551
2023-01-12T12:48:45,42.805,6.029,CST-1368DR,4420,4880,11735,01.143,551
2023-01-12T12:51:46,42.805,6.029,CST-1368DR,4421,4878,11727,01.146,551
2023-01-12T12:54:48,42.805,6.029,CST-1368DR,4420,4881,11738,01.142,551
2023-01-12T12:57:49,42.805,6.029,CST-1368DR,4420,4880,11736,01.143,551
2023-01-12T13:00:51,42.805,6.029,CST-1368DR,4420,4880,11735,01.143,551
2023-01-12T13:03:53,42.805,6.029,CST-1368DR,4420,4878,11730,01.145,551
2023-01-12T13:06:54,42.805,6.029,CST-1368DR,4420,4861,11689,01.159,551
2023-01-12T13:09:56,42.805,6.029,CST-1368DR,4420,4879,11733,01.144,551
2023-01-12T13:12:57,42.805,6.029,CST-1368DR,4420,4879,11733,01.144,551
2023-01-12T13:15:59,42.805,6.029,CST-1368DR,4420,4878,11731,01.144,551
2023-01-12T13:19:00,42.805,6.029,CST-1368DR,4420,4880,11735,01.143,551
2023-01-12T13:22:02,42.805,6.029,CST-1368DR,4420,4881,11736,01.143,551
2023-01-12T13:25:04,42.805,6.029,CST-1368DR,4420,4876,11725,01.146,551
2023-01-12T13:28:05,42.805,6.029,CST-1368DR,4420,4881,11738,01.142,551
2023-01-12T13:31:07,42.805,6.029,CST-1368DR,4420,4879,11732,01.144,551
2023-01-12T13:34:08,42.805,6.029,CST-1368DR,4420,4880,11736,01.143,551
2023-01-12T13:37:10,42.805,6.029,CST-1368DR,4420,4880,11735,01.143,551
2023-01-12T13:40:12,42.805,6.029,CST-1368DR,4420,4875,11723,01.147,551
2023-01-12T13:43:13,42.805,6.029,CST-1368DR,4420,4878,11729,01.145,551
2023-01-12T13:46:15,42.805,6.029,CST-1368DR,4420,4879,11733,01.144,551
2023-01-12T13:49:16,42.805,6.029,CST-1368DR,4420,4881,11738,01.142,551
2023-01-12T13:52:18,42.805,6.029,CST-1368DR,4420,4877,11727,01.146,551
2023-01-12T13:55:19,42.805,6.029,CST-1368DR,4420,4882,11741,01.141,551
2023-01-12T13:58:21,42.805,6.029,CST-1368DR,4420,4882,11739,01.142,551
2023-01-12T14:01:23,42.805,6.029,CST-1368DR,4420,4882,11740,01.141,551
2023-01-12T14:04:24,42.805,6.029,CST-1368DR,4420,4880,11735,01.143,551
2023-01-12T14:07:26,42.805,6.029,CST-1368DR,4420,4881,11738,01.142,551
2023-01-12T14:10:27,42.805,6.029,CST-1368DR,4420,4884,11745,01.139,551
2023-01-12T14:13:29,42.805,6.029,CST-1368DR,4420,4880,11736,01.143,551
2023-01-12T14:16:31,42.805,6.029,CST-1368DR,4420,4877,11728,01.145,551
2023-01-12T14:19:32,42.805,6.029,CST-1368DR,4420,4881,11737,01.142,551
2023-01-12T14:22:34,42.805,6.029,CST-1368DR,4420,4881,11738,01.142,551
2023-01-12T14:25:35,42.805,6.029,CST-1368DR,4420,4881,11736,01.143,551
2023-01-12T14:28:37,42.805,6.029,CST-1368DR,4420,4884,11744,01.140,551
2023-01-12T14:31:39,42.805,6.029,CST-1368DR,4420,4879,11732,01.144,551
2023-01-12T14:34:40,42.805,6.029,CST-1368DR,4420,4881,11738,01.142,551
2023-01-12T14:37:42,42.805,6.029,CST-1368DR,4420,4881,11738,01.142,551
2023-01-12T14:40:43,42.805,6.029,CST-1368DR,4420,4882,11741,01.141,551
2023-01-12T14:43:45,42.805,6.029,CST-1368DR,4420,4878,11730,01.145,551
2023-01-12T14:46:46,42.805,6.029,CST-1368DR,4420,4879,11733,01.144,551
2023-01-12T14:49:48,42.805,6.029,CST-1368DR,4420,4881,11736,01.143,551
2023-01-12T14:52:50,42.805,6.029,CST-1368DR,4420,4881,11737,01.142,551
2023-01-12T14:55:51,42.805,6.029,CST-1368DR,4420,4882,11739,01.142,551
2023-01-12T14:58:53,42.805,6.029,CST-1368DR,4420,4880,11735,01.143,551
2023-01-12T15:01:54,42.805,6.029,CST-1368DR,4420,4878,11730,01.145,551
2023-01-12T15:04:56,42.805,6.029,CST-1368DR,4420,4881,11736,01.143,551
2023-01-12T15:07:58,42.805,6.029,CST-1368DR,4420,4880,11735,01.143,551
2023-01-12T15:10:59,42.805,6.029,CST-1368DR,4420,4880,11735,01.143,551
2023-01-12T15:14:01,42.805,6.029,CST-1368DR,4420,4880,11736,01.143,551
2023-01-12T15:17:02,42.805,6.029,CST-1368DR,4420,4882,11740,01.141,551
2023-01-12T15:20:04,42.805,6.029,CST-1368DR,4420,4891,11762,01.134,551
2023-01-12T15:23:05,42.805,6.029,CST-1368DR,4420,4879,11733,01.144,551
2023-01-12T15:26:07,42.805,6.029,CST-1368DR,4420,4887,11752,01.137,551
2023-01-12T15:29:09,42.805,6.029,CST-1368DR,4420,4886,11749,01.138,551
2023-01-12T15:32:10,42.805,6.029,CST-1368DR,4420,4883,11743,01.140,551
2023-01-12T15:35:12,42.805,6.029,CST-1368DR,4420,4889,11756,01.136,551
2023-01-12T15:38:13,42.805,6.029,CST-1368DR,4420,4882,11739,01.142,551
2023-01-12T15:41:15,42.805,6.029,CST-1368DR,4420,4888,11755,01.136,551
2023-01-12T15:44:17,42.805,6.029,CST-1368DR,4420,4891,11762,01.134,551
2023-01-12T15:47:18,42.805,6.029,CST-1368DR,4420,4888,11753,01.137,551
2023-01-12T15:50:20,42.805,6.029,CST-1368DR,4420,4887,11751,01.137,551
2023-01-12T15:53:21,42.805,6.029,CST-1368DR,4420,4885,11747,01.139,551
2023-01-12T15:56:23,42.805,6.029,CST-1368DR,4420,4888,11754,01.136,551
2023-01-12T15:59:25,42.805,6.029,CST-1368DR,4420,4883,11742,01.140,551
2023-01-12T16:02:26,42.805,6.029,CST-1368DR,4420,4888,11755,01.136,551
2023-01-12T16:05:28,42.805,6.029,CST-1368DR,4420,4885,11748,01.138,551
2023-01-12T16:08:29,42.805,6.029,CST-1368DR,4420,4880,11736,01.143,551
2023-01-12T16:11:31,42.805,6.029,CST-1368DR,4420,4882,11739,01.142,551
2023-01-12T16:14:32,42.805,6.029,CST-1368DR,4420,4885,11747,01.139,551
2023-01-12T16:17:34,42.805,6.029,CST-1368DR,4420,4888,11754,01.136,551
2023-01-12T16:20:36,42.805,6.029,CST-1368DR,4420,4882,11739,01.142,551
2023-01-12T16:23:37,42.805,6.029,CST-1368DR,4420,4890,11760,01.134,551
2023-01-12T16:26:39,42.805,6.029,CST-1368DR,4420,4885,11746,01.139,551
2023-01-12T16:29:40,42.805,6.029,CST-1368DR,4420,4881,11738,01.142,551
2023-01-12T16:32:42,42.805,6.029,CST-1368DR,4420,4886,11750,01.138,551
2023-01-12T16:35:44,42.805,6.029,CST-1368DR,4420,4884,11745,01.139,551